Radiation Dose measured at exhaust stack monitor of Fukushima Daiichi Nuclear Power Station
Date,Time,Unit 5 6 shared exhaust cylinders,Wind Direction,Wind Velocity(m/s)
2021/04/11,00:00,4.0,northwest,6.3
2021/04/11,00:10,4.1,northwest,6.6
2021/04/11,00:20,3.9,northwest,6.3
2021/04/11,00:30,3.9,northwest,5.5
2021/04/11,00:40,4.1,northwest,5.4
2021/04/11,00:50,4.0,northwest,6.0
2021/04/11,01:00,4.0,northwest,5.7
2021/04/11,01:10,3.9,northwest,5.1
2021/04/11,01:20,4.1,northwest,4.5
2021/04/11,01:30,3.7,north-northwest,5.6
2021/04/11,01:40,3.9,northwest,5.7
2021/04/11,01:50,4.1,north-northwest,5.5
2021/04/11,02:00,3.8,north-northwest,5.8
2021/04/11,02:10,3.8,north-northwest,5.7
2021/04/11,02:20,4.0,north-northwest,5.8
2021/04/11,02:30,3.9,north-northwest,6.5
2021/04/11,02:40,3.9,north-northwest,6.4
2021/04/11,02:50,3.9,north-northwest,6.1
2021/04/11,03:00,3.8,north-northwest,6.0
2021/04/11,03:10,3.9,north-northwest,5.7
2021/04/11,03:20,4.0,north-northwest,6.3
2021/04/11,03:30,4.0,north-northwest,6.2
2021/04/11,03:40,4.0,north-northwest,5.5
2021/04/11,03:50,3.9,north-northwest,5.8
2021/04/11,04:00,3.9,northwest,4.8
2021/04/11,04:10,3.9,northwest,5.1
2021/04/11,04:20,4.0,northwest,5.4
2021/04/11,04:30,4.0,northwest,5.0
2021/04/11,04:40,4.1,northwest,5.3
2021/04/11,04:50,4.1,northwest,5.3
2021/04/11,05:00,3.8,north-northwest,5.1
2021/04/11,05:10,4.0,north-northwest,5.1
2021/04/11,05:20,3.9,north-northwest,5.1
2021/04/11,05:30,4.0,north-northwest,4.9
2021/04/11,05:40,3.8,north-northwest,4.9
2021/04/11,05:50,3.9,north-northwest,4.3
2021/04/11,06:00,4.0,northwest,5.1
2021/04/11,06:10,4.0,northwest,4.7
2021/04/11,06:20,4.0,north-northwest,4.6
2021/04/11,06:30,3.8,northwest,4.3
2021/04/11,06:40,4.1,north-northwest,4.2
2021/04/11,06:50,4.0,north-northwest,4.7
2021/04/11,07:00,4.0,north-northwest,4.7
2021/04/11,07:10,3.9,north-northwest,4.5
2021/04/11,07:20,3.8,north-northwest,3.5
2021/04/11,07:30,3.9,north-northwest,3.2
2021/04/11,07:40,3.8,north-northwest,3.0
2021/04/11,07:50,4.0,north,3.4
2021/04/11,08:00,3.9,north,2.6
2021/04/11,08:10,3.9,north-northeast,2.9
2021/04/11,08:20,4.1,north-northeast,3.2
2021/04/11,08:30,3.8,north-northeast,3.2
2021/04/11,08:40,4.2,northeast,3.3
2021/04/11,08:50,3.9,northeast,3.9
2021/04/11,09:00,3.9,northeast,4.1
2021/04/11,09:10,3.9,north-northeast,4.2
2021/04/11,09:20,4.0,north-northeast,3.7
2021/04/11,09:30,3.8,north-northeast,4.1
2021/04/11,09:40,3.9,northeast,4.9
2021/04/11,09:50,4.0,northeast,5.1
2021/04/11,10:00,3.9,north-northeast,5.2
2021/04/11,10:10,3.8,north-northeast,5.3
2021/04/11,10:20,4.0,north-northeast,5.0
2021/04/11,10:30,4.0,north-northeast,5.0
2021/04/11,10:40,3.9,north-northeast,4.1
2021/04/11,10:50,4.0,north,4.0
2021/04/11,11:00,3.9,northeast,3.7
2021/04/11,11:10,3.9,east-northeast,4.1
2021/04/11,11:20,3.9,northeast,3.9
2021/04/11,11:30,4.1,northeast,3.7
2021/04/11,11:40,3.8,northeast,3.8
2021/04/11,11:50,4.1,east-northeast,3.6
2021/04/11,12:00,4.0,east-northeast,3.5
2021/04/11,12:10,4.0,east-northeast,2.8
2021/04/11,12:20,3.9,east-northeast,3.2
2021/04/11,12:30,3.8,east-northeast,2.9
2021/04/11,12:40,4.0,east-northeast,2.8
2021/04/11,12:50,3.9,east-northeast,3.2
2021/04/11,13:00,4.0,east-northeast,2.9
2021/04/11,13:10,4.0,east,3.1
2021/04/11,13:20,4.0,east,3.0
2021/04/11,13:30,4.0,east,2.6
2021/04/11,13:40,3.9,east,3.2
2021/04/11,13:50,3.8,east-southeast,3.3
2021/04/11,14:00,3.9,east-southeast,3.6
2021/04/11,14:10,4.0,east-southeast,2.6
2021/04/11,14:20,3.9,east-southeast,3.2
2021/04/11,14:30,3.8,east-southeast,3.9
2021/04/11,14:40,4.0,east-southeast,3.0
2021/04/11,14:50,3.8,east-southeast,2.5
2021/04/11,15:00,3.9,southeast,3.9
2021/04/11,15:10,3.9,east-southeast,4.3
2021/04/11,15:20,4.0,east-southeast,3.8
2021/04/11,15:30,4.0,east-southeast,3.0
2021/04/11,15:40,4.1,southeast,3.3
2021/04/11,15:50,4.0,southeast,2.9
2021/04/11,16:00,4.0,east-southeast,3.6
2021/04/11,16:10,3.9,east-southeast,3.4
2021/04/11,16:20,4.0,east-southeast,2.8
2021/04/11,16:30,4.1,southeast,2.6
2021/04/11,16:40,3.9,southeast,2.9
2021/04/11,16:50,3.9,southeast,2.3
2021/04/11,17:00,4.0,south-southeast,2.9
2021/04/11,17:10,4.0,south-southeast,3.3
2021/04/11,17:20,3.8,south-southeast,2.6
2021/04/11,17:30,3.8,south-southeast,2.6
2021/04/11,17:40,3.8,south,2.6
2021/04/11,17:50,3.9,south,2.9
2021/04/11,18:00,3.9,south-southeast,2.5
2021/04/11,18:10,3.9,south,2.6
2021/04/11,18:20,3.9,south,2.0
2021/04/11,18:30,3.9,south,2.2
2021/04/11,18:40,3.9,south,2.2
2021/04/11,18:50,4.0,south-southwest,2.0
2021/04/11,19:00,4.0,south-southwest,2.2
2021/04/11,19:10,4.0,south-southwest,2.3
2021/04/11,19:20,3.9,south-southwest,2.2
2021/04/11,19:30,3.9,south-southwest,2.6
2021/04/11,19:40,4.0,south-southwest,2.8
2021/04/11,19:50,4.2,south-southwest,2.8
2021/04/11,20:00,4.1,south-southwest,3.0
2021/04/11,20:10,3.9,south-southwest,2.9
2021/04/11,20:20,4.1,south,2.2
2021/04/11,20:30,3.9,south-southwest,2.8
2021/04/11,20:40,4.0,south-southwest,3.5
2021/04/11,20:50,3.8,south-southwest,3.9
2021/04/11,21:00,3.9,south-southwest,3.9
2021/04/11,21:10,4.0,south-southwest,4.0
2021/04/11,21:20,3.8,south-southwest,4.3
2021/04/11,21:30,3.9,south-southwest,4.3
2021/04/11,21:40,3.9,south-southwest,4.3
2021/04/11,21:50,4.0,south-southwest,4.5
2021/04/11,22:00,3.9,south-southwest,4.7
2021/04/11,22:10,3.9,south-southwest,4.6
2021/04/11,22:20,4.0,south-southwest,4.7
2021/04/11,22:30,3.9,southwest,5.1
2021/04/11,22:40,3.9,south-southwest,4.9
2021/04/11,22:50,3.9,south-southwest,4.8
2021/04/11,23:00,3.9,south-southwest,4.5
2021/04/11,23:10,3.8,south-southwest,3.9
2021/04/11,23:20,3.9,south-southwest,4.0
2021/04/11,23:30,3.9,southwest,4.4
2021/04/11,23:40,3.8,southwest,4.8
2021/04/11,23:50,4.0,south-southwest,4.9
